Regional Weather Roundup
Issued by NWS

Home | Current Version | Previous Version | Graphics & Text | Print | Product List | Glossary On
Versions: 1 2 3 4 5 6 7 8 9 10 11 12 13 14 15 16 17 18 19 20 21 22 23 24 25 26 27 28 29 30 31 32 33 34 35 36 37 38 39 40 41 42 43 44 45 46 47 48 49 50
000
ASUS45 KABQ 250410
RWRNM
WEATHER ROUNDUP FOR NEW MEXICO
NATIONAL WEATHER SERVICE ALBUQUERQUE NM
1000 PM MDT FRI APR 24 2015

NOTE: "FAIR" MEANS FEW OR NO CLOUDS BELOW 12,000 FEET AGL WITH NO
       SIGNIFICANT WEATHER OR OBSTRUCTIONS TO VISION.

      THIS PRODUCT IS RELEASED AS TWO VERSIONS.  ONE VERSION NEAR
      THE TOP OF THE HOUR CONTAINING PRELIMINARY DATA FROM ALBUQUERQUE
      AND OTHER STATIONS.  A FINAL VERSION WITH ADDITIONAL DATA IS
      ISSUED ABOUT 10 MINUTES AFTER THE HOUR.

NMZ501-503-504-510>518-250500-
NORTHWEST PLATEAU/NORTHCENTRAL MOUNTAINS

CITY           SKY/WX    TMP DP  RH WIND       PRES   REMARKS
FARMINGTON     CLOUDY    49  37  63 SE12      29.90R
LOS ALAMOS     MOCLDY    44  32  63 SW7       29.99R
SANTA FE       LGT RAIN  49  28  44 NW9G25    29.95R
TAOS           MOCLDY    43  25  49 SW9       29.97R
ANGEL FIRE     MOCLDY    36  29  73 W7        29.97R WCI  31

$$
NMZ402-403-502-505>509-250500-
WESTCENTRAL MOUNTAINS/SOUTHWEST MOUNTAINS

CITY           SKY/WX    TMP DP  RH WIND       PRES   REMARKS
GALLUP         PTCLDY    46  33  60 SW16G24   29.99R
GRANTS         CLEAR     44  32  61 CALM      30.01R
SILVER CITY      N/A     45  27  49 NW9       30.03R

$$
NMZ407-409-411-412-250500-
SOUTHERN DESERTS

CITY           SKY/WX    TMP DP  RH WIND       PRES   REMARKS
LORDSBURG      FAIR      54  28  37 NW3       29.99R
DEMING         CLEAR     56  31  38 W6        29.98R
LAS CRUCES     CLEAR     59  28  31 W6        29.99R
HOLLOMAN AFB   PTCLDY    61  29  29 W14       29.93R
ALAMOGORDO     PTCLDY    59  28  31 SW9       29.96R
T OR C           N/A     57  27  31 W6        29.96R

$$
NMZ519>523-250500-
CENTRAL VALLEYS/CENTRAL HIGHLANDS

CITY           SKY/WX    TMP DP  RH WIND       PRES   REMARKS
ALBUQUERQUE    PTCLDY    54  33  45 W7        29.95R
DOUBLE EAGLE   PTCLDY    48  32  53 W12         N/A
MORIARTY ARPT  FAIR      47  27  44 NW7       29.95S
CLINES CORNERS MOCLDY    43  29  57 W20       29.94R
BELEN          CLOUDY    54  34  47 W9        29.95R
SOCORRO        FAIR      58  28  32 W17G28    29.92R

$$
NMZ524>526-539-540-250500-
SOUTHCENTRAL MOUNTAINS

CITY           SKY/WX    TMP DP  RH WIND       PRES   REMARKS
RUIDOSO        CLEAR     48  25  40 SW18G24   29.99R

$$
NMZ527>531-250500-
NORTHEAST HIGHLANDS/NORTHEAST PLAINS

CITY           SKY/WX    TMP DP  RH WIND       PRES   REMARKS
LAS VEGAS      PTCLDY    47  23  38 W26G35    29.87R
RATON          CLEAR     50  20  30 CALM      29.79R
CLAYTON        CLEAR     54  24  31 W15       29.71R

$$
NMZ532>537-250500-
EASTCENTRAL PLAINS

CITY           SKY/WX    TMP DP  RH WIND       PRES   REMARKS
TUCUMCARI      CLEAR     60  24  25 W17       29.76R
CANNON AFB     PTCLDY    58  29  33 W15       29.82R
CLOVIS AIRPORT PTCLDY    57  27  30 W18       29.81R

$$
NMZ028-029-538-250500-
SOUTHEAST PLAINS

CITY           SKY/WX    TMP DP  RH WIND       PRES   REMARKS
ROSWELL        CLEAR     50  34  54 S5        29.85R
ARTESIA        CLEAR     59  27  29 SW13      29.87R
CARLSBAD       CLEAR     55  27  34 W6        29.86R
HOBBS          CLEAR     59  25  27 SW13      29.88R


$$


USA.gov is the U.S. government's official web portal to all federal, state and local government web resources and services.